Time,TemperatureF,DewpointF,PressureIn,WindDirection,WindDirectionDegrees,WindSpeedMPH,WindSpeedGustMPH,Humidity,HourlyPrecipIn,Conditions,Clouds,dailyrainin,SoftwareType,DateUTC
2013-07-04 00:04:00,64.3,62.8,30.01,WSW,255,0.0,0.0,95,0.00,,,0.00,Wunderground v.1.15,2013-07-04 04:04:00,
2013-07-04 00:15:00,64.3,63.1,30.01,WSW,255,0.0,0.0,96,0.00,,,0.00,Wunderground v.1.15,2013-07-04 04:15:00,
2013-07-04 00:25:00,64.3,63.1,30.01,WSW,255,0.0,0.0,96,0.00,,,0.00,Wunderground v.1.15,2013-07-04 04:25:00,
2013-07-04 00:35:00,64.3,63.1,30.01,WSW,255,0.0,0.0,96,0.00,,,0.00,Wunderground v.1.15,2013-07-04 04:35:00,
2013-07-04 00:45:00,64.2,63.0,30.01,WSW,255,0.0,0.0,96,0.00,,,0.00,Wunderground v.1.15,2013-07-04 04:45:00,
2013-07-04 00:54:00,64.0,62.8,30.01,WSW,255,0.0,0.0,96,0.00,,,0.00,Wunderground v.1.15,2013-07-04 04:54:00,
2013-07-04 01:04:00,63.7,62.5,30.01,WSW,255,0.0,0.0,96,0.00,,,0.00,Wunderground v.1.15,2013-07-04 05:04:00,
2013-07-04 01:15:00,63.2,62.0,30.01,WSW,255,0.0,0.0,96,0.00,,,0.00,Wunderground v.1.15,2013-07-04 05:15:00,
2013-07-04 01:25:00,62.9,61.7,30.01,WSW,255,0.0,0.0,96,0.00,,,0.00,Wunderground v.1.15,2013-07-04 05:25:00,
2013-07-04 01:35:00,62.9,62.0,30.01,WSW,255,0.0,0.0,97,0.00,,,0.00,Wunderground v.1.15,2013-07-04 05:35:00,
2013-07-04 01:45:00,62.6,61.7,30.01,WSW,255,0.0,0.0,97,0.00,,,0.00,Wunderground v.1.15,2013-07-04 05:45:00,
2013-07-04 01:55:00,62.1,61.2,30.01,WSW,255,0.0,0.0,97,0.00,,,0.00,Wunderground v.1.15,2013-07-04 05:55:00,
2013-07-04 02:05:00,62.0,61.1,30.01,WSW,255,0.0,0.0,97,0.00,,,0.00,Wunderground v.1.15,2013-07-04 06:05:00,
2013-07-04 02:15:00,61.5,60.6,30.01,WSW,255,0.0,0.0,97,0.00,,,0.00,Wunderground v.1.15,2013-07-04 06:15:00,
2013-07-04 02:25:00,61.8,61.2,30.00,WSW,255,0.0,0.0,98,0.00,,,0.00,Wunderground v.1.15,2013-07-04 06:25:00,
2013-07-04 02:35:00,62.1,61.5,30.00,WSW,255,0.0,0.0,98,0.00,,,0.00,Wunderground v.1.15,2013-07-04 06:35:00,
2013-07-04 02:45:00,62.4,61.8,30.00,WSW,255,0.0,0.0,98,0.00,,,0.00,Wunderground v.1.15,2013-07-04 06:45:00,
2013-07-04 02:55:00,62.3,61.7,30.00,WSW,255,0.0,0.0,98,0.00,,,0.00,Wunderground v.1.15,2013-07-04 06:55:00,
2013-07-04 03:05:00,61.8,61.2,30.00,WSW,255,0.0,0.0,98,0.00,,,0.00,Wunderground v.1.15,2013-07-04 07:05:00,
2013-07-04 03:15:00,61.2,60.6,30.00,WSW,255,0.0,0.0,98,0.00,,,0.00,Wunderground v.1.15,2013-07-04 07:15:00,
2013-07-04 03:25:00,61.0,60.4,30.00,WSW,255,0.0,0.0,98,0.00,,,0.00,Wunderground v.1.15,2013-07-04 07:25:00,
2013-07-04 03:35:00,61.6,61.3,30.00,WSW,255,0.0,0.0,99,0.00,,,0.00,Wunderground v.1.15,2013-07-04 07:35:00,
2013-07-04 03:45:00,62.3,62.0,30.00,WSW,255,0.0,0.0,99,0.00,,,0.00,Wunderground v.1.15,2013-07-04 07:45:00,
2013-07-04 03:55:00,62.3,62.0,30.00,WSW,255,0.0,0.0,99,0.00,,,0.00,Wunderground v.1.15,2013-07-04 07:55:00,
2013-07-04 04:05:00,62.1,61.8,30.00,WSW,255,0.0,0.0,99,0.00,,,0.00,Wunderground v.1.15,2013-07-04 08:05:00,
2013-07-04 04:15:00,62.1,61.8,30.00,WSW,255,0.0,0.0,99,0.00,,,0.00,Wunderground v.1.15,2013-07-04 08:15:00,
2013-07-04 04:25:00,62.1,61.8,30.00,WSW,255,0.0,0.0,99,0.00,,,0.00,Wunderground v.1.15,2013-07-04 08:25:00,
2013-07-04 04:35:00,62.4,62.1,30.00,WSW,255,0.0,0.0,99,0.00,,,0.00,Wunderground v.1.15,2013-07-04 08:35:00,
2013-07-04 04:45:00,62.7,62.4,30.00,WSW,255,0.0,0.0,99,0.00,,,0.00,Wunderground v.1.15,2013-07-04 08:45:00,
2013-07-04 04:55:00,62.7,62.4,30.00,WSW,255,0.0,0.0,99,0.00,,,0.00,Wunderground v.1.15,2013-07-04 08:55:00,
2013-07-04 05:05:00,62.6,62.3,30.00,WSW,255,0.0,0.0,99,0.00,,,0.00,Wunderground v.1.15,2013-07-04 09:05:00,
2013-07-04 05:15:00,62.7,62.4,30.00,WSW,255,0.0,0.0,99,0.00,,,0.00,Wunderground v.1.15,2013-07-04 09:15:00,
2013-07-04 05:25:00,63.1,63.1,30.00,WSW,255,1.0,1.0,100,0.00,,,0.00,Wunderground v.1.15,2013-07-04 09:25:00,
2013-07-04 05:35:00,62.9,62.6,30.00,WSW,255,0.0,0.0,99,0.00,,,0.00,Wunderground v.1.15,2013-07-04 09:35:00,
2013-07-04 05:45:00,62.4,62.1,30.01,WSW,255,0.0,0.0,99,0.00,,,0.00,Wunderground v.1.15,2013-07-04 09:45:00,
2013-07-04 05:55:00,62.9,62.9,30.02,WSW,255,1.0,2.0,100,0.00,,,0.00,Wunderground v.1.15,2013-07-04 09:55:00,
2013-07-04 06:05:00,62.9,62.9,30.02,WSW,255,2.0,3.0,100,0.00,,,0.00,Wunderground v.1.15,2013-07-04 10:05:00,
2013-07-04 06:14:00,63.1,63.1,30.02,WSW,255,4.0,5.0,100,0.00,,,0.00,Wunderground v.1.15,2013-07-04 10:14:00,
2013-07-04 06:25:00,63.2,63.2,30.03,WSW,255,4.0,4.0,100,0.00,,,0.00,Wunderground v.1.15,2013-07-04 10:25:00,
2013-07-04 06:35:00,63.4,63.4,30.03,WSW,255,2.0,2.0,100,0.00,,,0.00,Wunderground v.1.15,2013-07-04 10:35:00,
2013-07-04 06:45:00,63.7,63.7,30.03,WSW,254,3.0,5.0,100,0.00,,,0.00,Wunderground v.1.15,2013-07-04 10:45:00,
2013-07-04 06:55:00,63.9,63.9,30.03,WSW,254,3.0,3.0,100,0.00,,,0.00,Wunderground v.1.15,2013-07-04 10:55:00,
2013-07-04 07:04:00,64.0,64.0,30.03,WSW,254,2.0,2.0,100,0.00,,,0.00,Wunderground v.1.15,2013-07-04 11:04:00,
2013-07-04 07:15:00,64.0,64.0,30.04,WSW,253,2.0,2.0,100,0.00,,,0.00,Wunderground v.1.15,2013-07-04 11:15:00,
2013-07-04 07:25:00,63.9,63.9,30.03,WSW,253,1.0,1.0,100,0.00,,,0.00,Wunderground v.1.15,2013-07-04 11:25:00,
2013-07-04 07:35:00,63.9,63.9,30.03,WSW,253,2.0,3.0,100,0.00,,,0.00,Wunderground v.1.15,2013-07-04 11:35:00,
2013-07-04 07:45:00,63.9,63.9,30.04,WSW,251,3.0,3.0,100,0.00,,,0.00,Wunderground v.1.15,2013-07-04 11:45:00,
2013-07-04 07:55:00,63.9,63.9,30.04,SW,227,4.0,4.0,100,0.00,,,0.00,Wunderground v.1.15,2013-07-04 11:55:00,
2013-07-04 08:05:00,63.9,63.9,30.04,SW,228,6.0,6.0,100,0.00,,,0.00,Wunderground v.1.15,2013-07-04 12:05:00,
2013-07-04 08:15:00,64.0,64.0,30.04,SW,228,5.0,6.0,100,0.00,,,0.00,Wunderground v.1.15,2013-07-04 12:15:00,
2013-07-04 08:25:00,63.9,63.6,30.05,SW,223,6.0,6.0,99,0.00,,,0.00,Wunderground v.1.15,2013-07-04 12:25:00,
2013-07-04 08:35:00,63.9,63.6,30.05,SW,226,6.0,6.0,99,0.00,,,0.00,Wunderground v.1.15,2013-07-04 12:35:00,
2013-07-04 08:45:00,64.2,63.9,30.06,SW,229,5.0,6.0,99,0.00,,,0.00,Wunderground v.1.15,2013-07-04 12:45:00,
2013-07-04 08:55:00,64.3,64.0,30.06,SW,229,4.0,4.0,99,0.00,,,0.00,Wunderground v.1.15,2013-07-04 12:55:00,
2013-07-04 09:04:00,65.0,64.7,30.06,SW,229,4.0,5.0,99,0.00,,,0.00,Wunderground v.1.15,2013-07-04 13:04:00,
2013-07-04 09:15:00,64.8,64.5,30.06,SW,229,6.0,8.0,99,0.00,,,0.00,Wunderground v.1.15,2013-07-04 13:15:00,
2013-07-04 09:25:00,66.0,65.4,30.06,SW,228,6.0,6.0,98,0.00,,,0.00,Wunderground v.1.15,2013-07-04 13:25:00,
2013-07-04 09:35:00,66.3,64.8,30.06,SW,222,7.0,7.0,95,0.00,,,0.00,Wunderground v.1.15,2013-07-04 13:35:00,
2013-07-04 09:45:00,67.1,65.0,30.06,SW,235,5.0,7.0,93,0.00,,,0.00,Wunderground v.1.15,2013-07-04 13:45:00,
2013-07-04 09:55:00,67.8,65.1,30.06,SW,223,6.0,7.0,91,0.00,,,0.00,Wunderground v.1.15,2013-07-04 13:55:00,
2013-07-04 10:05:00,68.9,64.9,30.06,WSW,240,4.0,6.0,87,0.00,,,0.00,Wunderground v.1.15,2013-07-04 14:05:00,
2013-07-04 10:15:00,69.6,65.2,30.06,WSW,255,5.0,5.0,86,0.00,,,0.00,Wunderground v.1.15,2013-07-04 14:15:00,
2013-07-04 10:24:00,69.8,63.3,30.06,WSW,250,5.0,5.0,80,0.00,,,0.00,Wunderground v.1.15,2013-07-04 14:24:00,
2013-07-04 10:35:00,70.6,64.5,30.06,WSW,254,4.0,8.0,81,0.00,,,0.00,Wunderground v.1.15,2013-07-04 14:35:00,
2013-07-04 10:45:00,70.1,63.3,30.06,WSW,244,4.0,4.0,79,0.00,,,0.00,Wunderground v.1.15,2013-07-04 14:45:00,
2013-07-04 10:55:00,70.1,62.9,30.06,West,259,4.0,9.0,78,0.00,,,0.00,Wunderground v.1.15,2013-07-04 14:55:00,
2013-07-04 11:05:00,70.8,63.6,30.06,WSW,250,6.0,7.0,78,0.00,,,0.00,Wunderground v.1.15,2013-07-04 15:05:00,
2013-07-04 11:15:00,71.6,62.9,30.06,WSW,255,4.0,4.0,74,0.00,,,0.00,Wunderground v.1.15,2013-07-04 15:15:00,
2013-07-04 11:25:00,72.5,63.7,30.06,WSW,256,3.0,3.0,74,0.00,,,0.00,Wunderground v.1.15,2013-07-04 15:25:00,
2013-07-04 11:35:00,73.0,63.0,30.06,WSW,250,5.0,5.0,71,0.00,,,0.00,Wunderground v.1.15,2013-07-04 15:35:00,
2013-07-04 11:45:00,73.7,63.7,30.06,WSW,252,5.0,7.0,71,0.00,,,0.00,Wunderground v.1.15,2013-07-04 15:45:00,
2013-07-04 11:54:00,73.5,63.1,30.06,WSW,250,3.0,3.0,70,0.00,,,0.00,Wunderground v.1.15,2013-07-04 15:54:00,
2013-07-04 12:05:00,73.5,62.7,30.06,WSW,240,4.0,6.0,69,0.00,,,0.00,Wunderground v.1.15,2013-07-04 16:05:00,
2013-07-04 12:15:00,74.2,62.1,30.05,WSW,252,4.0,6.0,66,0.00,,,0.00,Wunderground v.1.15,2013-07-04 16:15:00,
2013-07-04 12:25:00,74.0,60.2,30.05,West,270,4.0,4.0,62,0.00,,,0.00,Wunderground v.1.15,2013-07-04 16:25:00,
2013-07-04 12:35:00,74.4,60.5,30.05,West,262,5.0,8.0,62,0.00,,,0.00,Wunderground v.1.15,2013-07-04 16:35:00,
2013-07-04 12:45:00,74.7,61.3,30.05,SSW,206,6.0,6.0,63,0.00,,,0.00,Wunderground v.1.15,2013-07-04 16:45:00,
2013-07-04 12:55:00,75.4,61.0,30.05,West,261,4.0,4.0,61,0.00,,,0.00,Wunderground v.1.15,2013-07-04 16:55:00,
2013-07-04 13:05:00,75.6,60.7,30.05,SW,236,5.0,6.0,60,0.00,,,0.00,Wunderground v.1.15,2013-07-04 17:05:00,
2013-07-04 13:15:00,76.0,61.1,30.05,WSW,254,6.0,6.0,60,0.00,,,0.00,Wunderground v.1.15,2013-07-04 17:15:00,
2013-07-04 13:25:00,75.3,59.5,30.06,SW,223,4.0,6.0,58,0.00,,,0.00,Wunderground v.1.15,2013-07-04 17:25:00,
2013-07-04 13:35:00,76.3,61.4,30.06,SW,229,5.0,5.0,60,0.00,,,0.00,Wunderground v.1.15,2013-07-04 17:35:00,
2013-07-04 13:45:00,76.7,60.8,30.04,WSW,241,6.0,6.0,58,0.00,,,0.00,Wunderground v.1.15,2013-07-04 17:45:00,
2013-07-04 13:55:00,76.1,62.1,30.04,WSW,256,5.0,5.0,62,0.00,,,0.00,Wunderground v.1.15,2013-07-04 17:55:00,
2013-07-04 14:05:00,76.8,60.9,30.04,SW,233,6.0,6.0,58,0.00,,,0.00,Wunderground v.1.15,2013-07-04 18:05:00,
2013-07-04 14:15:00,76.8,57.8,30.04,WSW,252,6.0,9.0,52,0.00,,,0.00,Wunderground v.1.15,2013-07-04 18:15:00,
2013-07-04 14:25:00,77.0,56.9,30.04,SW,232,6.0,6.0,50,0.00,,,0.00,Wunderground v.1.15,2013-07-04 18:25:00,
2013-07-04 14:35:00,76.8,56.8,30.04,SW,215,6.0,7.0,50,0.00,,,0.00,Wunderground v.1.15,2013-07-04 18:35:00,
2013-07-04 14:45:00,76.7,56.7,30.04,SSW,199,7.0,7.0,50,0.00,,,0.00,Wunderground v.1.15,2013-07-04 18:45:00,
2013-07-04 14:55:00,76.7,57.2,30.03,SW,235,6.0,7.0,51,0.00,,,0.00,Wunderground v.1.15,2013-07-04 18:55:00,
2013-07-04 15:05:00,76.5,57.0,30.03,West,260,7.0,8.0,51,0.00,,,0.00,Wunderground v.1.15,2013-07-04 19:05:00,
2013-07-04 15:15:00,76.3,56.8,30.03,WSW,253,6.0,6.0,51,0.00,,,0.00,Wunderground v.1.15,2013-07-04 19:15:00,
2013-07-04 15:25:00,76.3,57.4,30.03,SW,231,6.0,7.0,52,0.00,,,0.00,Wunderground v.1.15,2013-07-04 19:25:00,
2013-07-04 15:35:00,76.7,59.3,30.03,WSW,258,5.0,9.0,55,0.00,,,0.00,Wunderground v.1.15,2013-07-04 19:35:00,
2013-07-04 15:45:00,77.0,59.6,30.03,WSW,240,6.0,6.0,55,0.00,,,0.00,Wunderground v.1.15,2013-07-04 19:45:00,
2013-07-04 15:54:00,77.4,58.9,30.03,SSW,211,5.0,5.0,53,0.00,,,0.00,Wunderground v.1.15,2013-07-04 19:54:00,
2013-07-04 16:04:00,77.6,59.6,30.03,SSW,196,5.0,5.0,54,0.00,,,0.00,Wunderground v.1.15,2013-07-04 20:04:00,
2013-07-04 16:15:00,77.2,58.7,30.02,SW,236,5.0,5.0,53,0.00,,,0.00,Wunderground v.1.15,2013-07-04 20:15:00,
2013-07-04 16:25:00,77.0,58.0,30.02,SW,232,6.0,6.0,52,0.00,,,0.00,Wunderground v.1.15,2013-07-04 20:25:00,
2013-07-04 16:35:00,77.0,59.6,30.02,SW,226,6.0,6.0,55,0.00,,,0.00,Wunderground v.1.15,2013-07-04 20:35:00,
2013-07-04 16:45:00,77.4,58.4,30.02,SW,234,5.0,5.0,52,0.00,,,0.00,Wunderground v.1.15,2013-07-04 20:45:00,
2013-07-04 16:55:00,77.2,59.3,30.02,SW,217,7.0,9.0,54,0.00,,,0.00,Wunderground v.1.15,2013-07-04 20:55:00,
2013-07-04 17:05:00,77.2,59.3,30.02,SW,234,7.0,7.0,54,0.00,,,0.00,Wunderground v.1.15,2013-07-04 21:05:00,
2013-07-04 17:15:00,77.2,59.8,30.02,SW,225,6.0,9.0,55,0.00,,,0.00,Wunderground v.1.15,2013-07-04 21:15:00,
2013-07-04 17:25:00,77.2,60.8,30.02,SW,236,6.0,6.0,57,0.00,,,0.00,Wunderground v.1.15,2013-07-04 21:25:00,
2013-07-04 17:35:00,76.8,61.4,30.02,WSW,238,6.0,7.0,59,0.00,,,0.00,Wunderground v.1.15,2013-07-04 21:35:00,
2013-07-04 17:45:00,76.7,59.8,30.02,SW,218,7.0,7.0,56,0.00,,,0.00,Wunderground v.1.15,2013-07-04 21:45:00,
2013-07-04 17:55:00,76.7,60.8,30.01,SW,226,7.0,7.0,58,0.00,,,0.00,Wunderground v.1.15,2013-07-04 21:55:00,
2013-07-04 18:05:00,76.5,61.1,30.01,WSW,240,6.0,6.0,59,0.00,,,0.00,Wunderground v.1.15,2013-07-04 22:05:00,
2013-07-04 18:15:00,76.7,62.2,30.01,SW,227,5.0,5.0,61,0.00,,,0.00,Wunderground v.1.15,2013-07-04 22:15:00,
2013-07-04 18:25:00,76.5,62.0,30.01,WSW,237,5.0,5.0,61,0.00,,,0.00,Wunderground v.1.15,2013-07-04 22:25:00,
2013-07-04 18:35:00,76.3,63.2,30.01,WSW,238,3.0,3.0,64,0.00,,,0.00,Wunderground v.1.15,2013-07-04 22:35:00,
2013-07-04 18:45:00,76.0,62.5,30.01,SW,230,5.0,5.0,63,0.00,,,0.00,Wunderground v.1.15,2013-07-04 22:45:00,
2013-07-04 18:54:00,75.6,62.6,30.00,SW,234,5.0,5.0,64,0.00,,,0.00,Wunderground v.1.15,2013-07-04 22:54:00,
2013-07-04 19:04:00,75.6,63.0,30.00,SW,234,3.0,4.0,65,0.00,,,0.00,Wunderground v.1.15,2013-07-04 23:04:00,
2013-07-04 19:15:00,75.4,62.8,30.00,SW,235,4.0,4.0,65,0.00,,,0.00,Wunderground v.1.15,2013-07-04 23:15:00,
2013-07-04 19:25:00,75.3,62.3,30.00,SW,235,4.0,4.0,64,0.00,,,0.00,Wunderground v.1.15,2013-07-04 23:25:00,
2013-07-04 19:35:00,75.4,62.8,30.00,SW,235,2.0,3.0,65,0.00,,,0.00,Wunderground v.1.15,2013-07-04 23:35:00,
2013-07-04 19:45:00,75.3,63.2,30.00,SW,235,3.0,3.0,66,0.00,,,0.00,Wunderground v.1.15,2013-07-04 23:45:00,
2013-07-04 19:55:00,75.4,63.2,30.00,SW,235,1.0,1.0,66,0.00,,,0.00,Wunderground v.1.15,2013-07-04 23:55:00,
2013-07-04 20:05:00,75.3,63.6,30.00,SW,235,1.0,1.0,67,0.00,,,0.00,Wunderground v.1.15,2013-07-05 00:05:00,
2013-07-04 20:15:00,75.1,63.4,30.00,SW,235,1.0,4.0,67,0.00,,,0.00,Wunderground v.1.15,2013-07-05 00:15:00,
2013-07-04 20:25:00,74.7,63.4,30.00,SW,235,1.0,1.0,68,0.00,,,0.00,Wunderground v.1.15,2013-07-05 00:25:00,
2013-07-04 20:35:00,74.4,63.1,30.00,SW,235,0.0,0.0,68,0.00,,,0.00,Wunderground v.1.15,2013-07-05 00:35:00,
2013-07-04 20:45:00,74.0,63.2,30.00,SW,235,0.0,0.0,69,0.00,,,0.00,Wunderground v.1.15,2013-07-05 00:45:00,
2013-07-04 20:55:00,73.7,64.1,30.00,SW,235,0.0,0.0,72,0.00,,,0.00,Wunderground v.1.15,2013-07-05 00:55:00,
2013-07-04 21:05:00,73.0,63.8,30.00,SW,235,0.0,0.0,73,0.00,,,0.00,Wunderground v.1.15,2013-07-05 01:05:00,
2013-07-04 21:15:00,72.1,63.7,30.00,SW,235,0.0,0.0,75,0.00,,,0.00,Wunderground v.1.15,2013-07-05 01:15:00,
2013-07-04 21:25:00,71.6,65.1,30.00,SW,235,0.0,0.0,80,0.00,,,0.00,Wunderground v.1.15,2013-07-05 01:25:00,
2013-07-04 21:35:00,71.1,65.0,30.00,SW,235,0.0,0.0,81,0.00,,,0.00,Wunderground v.1.15,2013-07-05 01:35:00,
2013-07-04 21:45:00,70.3,64.5,30.00,SW,235,0.0,0.0,82,0.00,,,0.00,Wunderground v.1.15,2013-07-05 01:45:00,
2013-07-04 21:54:00,69.6,64.2,30.01,SW,235,0.0,0.0,83,0.00,,,0.00,Wunderground v.1.15,2013-07-05 01:54:00,
2013-07-04 22:04:00,68.9,63.9,30.01,SW,235,0.0,0.0,84,0.00,,,0.00,Wunderground v.1.15,2013-07-05 02:04:00,
2013-07-04 22:15:00,68.4,64.0,30.01,SW,235,0.0,0.0,86,0.00,,,0.00,Wunderground v.1.15,2013-07-05 02:15:00,
2013-07-04 22:25:00,68.3,64.3,30.01,SW,235,0.0,0.0,87,0.00,,,0.00,Wunderground v.1.15,2013-07-05 02:25:00,
2013-07-04 22:35:00,68.1,64.4,30.01,SW,235,0.0,0.0,88,0.00,,,0.00,Wunderground v.1.15,2013-07-05 02:35:00,
2013-07-04 22:45:00,67.9,64.5,30.02,SW,235,0.0,0.0,89,0.00,,,0.00,Wunderground v.1.15,2013-07-05 02:45:00,
2013-07-04 22:55:00,67.6,64.2,30.02,SW,235,0.0,0.0,89,0.00,,,0.00,Wunderground v.1.15,2013-07-05 02:55:00,
2013-07-04 23:05:00,67.1,64.1,30.02,SW,235,0.0,0.0,90,0.00,,,0.00,Wunderground v.1.15,2013-07-05 03:05:00,
2013-07-04 23:15:00,66.6,63.6,30.02,SW,235,0.0,0.0,90,0.00,,,0.00,Wunderground v.1.15,2013-07-05 03:15:00,
2013-07-04 23:24:00,66.3,63.6,30.02,SW,235,0.0,0.0,91,0.00,,,0.00,Wunderground v.1.15,2013-07-05 03:24:00,
2013-07-04 23:35:00,66.1,63.7,30.02,SW,235,0.0,0.0,92,0.00,,,0.00,Wunderground v.1.15,2013-07-05 03:35:00,
2013-07-04 23:45:00,66.1,63.7,30.01,SW,235,0.0,0.0,92,0.00,,,0.00,Wunderground v.1.15,2013-07-05 03:45:00,
2013-07-04 23:55:00,66.6,64.2,30.01,SW,235,0.0,0.0,92,0.00,,,0.00,Wunderground v.1.15,2013-07-05 03:55:00,